OISA  Abadeh Airport

Add Bookmark

Abadeh, Iran

Status
Operational
Latitude Longitude
31° 10' 0" N 52° 40' 0" E
31.166668 52.666668
Local (DST + 5) UTC (GMT + 4)
Oct 25, 2014 10:29 Oct 25, 2014 06:59
Sunrise-Sunset Local UTC
Begin Civil Twilight 05:43 02:13
Sunrise 06:08 02:38
Sunset 05:18 13:48
End Civil Twilight 05:43 14:13

Current Weather

METAR Observed VFR
OISA 250454Z 33004KT CAVOK 12/M08 Q1023 Sat, Oct 25, 2014 @ 04:54 UTC
(2 Hours, 5 Minutes ago)
Visual Flight Rules
Wind Visibility Clouds Conditions
330° at 4 knots (7 kph) 10 km or more
  • Clear skies
  • No significant weather
Temperatures Readings Precipitation
Current Temp 12°C (54°F)
Dewpoint -8°C (18°F)
Humidity 24%
Altimeter 30.21"Hg
Sea Level Pressure 1023mb
Field Elevation 6574.8'
None Recorded

Additional weather within a 185.2km radius of OISA

Map ICAO Location
OISY 118.7km W (244°)
OIYY 173.2km E (061°)
OISS 180.9km S (182°)

24 Hour Weather History

Loading
-

24 Hour Weather Graphs

Loading
-

CheckWX.com is intended as a tool to help pilots better visualize weather data. It is not intended as a substitute for an official weather briefing obtained from a Flight Service Station. CheckWX.com does not meet the FAA requirements for an official pre-flight weather briefing. Therefore, it's important that pilots still call and obtain an official FSS pre-flight weather briefing.